EW9743 Weather Reports


time (UTC)temp
C
wind
direction
speed
KPH
gust
KPH
rain 1hr
cm
rain 24hr
cm
rain mn
cm
humidity
%
barometer
mb
20260509173032 15 135 0.0 0.0 0.00 0.33 0.33 83 1010.4
20260509171514 14 136 0.0 0.0 0.00 0.33 0.33 87 1010.3
20260509170009 13 135 0.0 0.0 0.00 0.33 0.33 87 1010.4
20260509164502 13 135 0.0 0.0 0.00 0.33 0.33 89 1010.7
20260509163059 13 135 0.0 0.0 0.00 0.33 0.33 89 1010.9
20260509161555 12 135 0.0 0.0 0.00 0.33 0.33 89 1010.8
20260509160054 12 136 0.0 0.0 0.00 0.33 0.33 90 1010.6
20260509154553 12 135 0.0 0.0 0.00 0.33 0.33 91 1010.7
20260509153152 12 136 0.0 0.0 0.00 0.33 0.33 93 1010.5
20260509151519 12 135 0.0 0.0 0.03 0.33 0.33 95 1010.5
20260509150017 11 136 0.0 0.0 0.08 0.33 0.33 95 1010.5
20260509144515 11 135 0.0 0.0 0.13 0.33 0.33 95 1010.8
20260509143017 11 135 0.0 0.0 0.18 0.33 0.33 95 1010.9
20260509141514 11 136 0.0 0.0 0.23 0.30 0.30 94 1010.9
20260509140014 11 135 0.0 0.0 0.20 0.25 0.25 94 1010.8
20260509134509 11 135 0.0 0.0 0.18 0.20 0.20 92 1010.9
20260509133009 11 135 0.0 0.0 0.13 0.15 0.15 90 1010.8
20260509131507 11 135 0.0 0.0 0.05 0.08 0.08 89 1010.7
20260509130018 11 135 0.0 0.0 0.03 0.05 0.05 87 1010.8
20260509124506 11 135 0.0 0.0 0.03 0.03 0.03 88 1010.8
20260509123002 11 136 0.0 0.0 0.03 0.03 0.03 87 1010.7
20260509121600 11 135 0.0 0.0 0.03 0.03 0.03 87 1011.0
20260509120100 11 135 0.0 0.0 0.03 0.03 0.03 87 1011.1
20260509114627 10 136 0.0 0.0 0.00 0.00 0.00 88 1011.2
20260509113127 10 136 0.0 0.0 0.00 0.00 0.00 88 1011.2
20260509111552 -17 0.0 0.0 0.00 0.00 0.00 1010.7
20260509110057 -17 0.0 0.0 0.00 0.00 0.00 1010.7
20260509104513 -17 134 0.0 0.0 0.00 0.00 0.00 1010.7
20260509103011 10 135 0.0 0.0 0.00 0.00 0.00 86 1010.4
20260509101512 10 135 0.0 0.0 0.00 0.00 0.00 86 1010.5
20260509100007 10 135 0.0 0.0 0.00 0.00 0.00 85 1010.1
20260509094506 10 136 0.0 0.0 0.00 0.00 0.00 85 1010.0
20260509093006 10 136 0.0 0.0 0.00 0.00 0.00 85 1009.8
20260509091502 10 135 0.0 0.0 0.00 0.00 0.00 84 1010.1
20260509090002 10 135 0.0 0.0 0.00 0.00 0.00 84 1010.0
20260509084619 10 135 0.0 0.0 0.00 0.00 0.00 84 1010.1
20260509083059 10 135 0.0 0.0 0.00 0.00 0.00 83 1010.1
20260509081600 10 135 0.0 0.0 0.00 0.00 0.00 83 1010.2
20260509080100 10 135 0.0 0.0 0.00 0.00 0.00 83 1010.4
20260509074556 10 135 0.0 0.0 0.00 0.00 0.00 84 1010.2
20260509073055 10 135 0.0 0.0 0.00 0.00 0.00 83 1010.1
20260509071554 10 135 0.0 0.0 0.00 0.00 0.00 84 1010.2
20260509070053 10 136 0.0 0.0 0.00 0.00 0.00 85 1010.3
20260509064557 10 135 0.0 0.0 0.00 0.00 0.00 85 1010.5
20260509063047 10 135 0.0 0.0 0.00 0.00 0.00 85 1010.5
20260509061600 10 136 0.0 0.0 0.00 0.00 0.00 83 1010.5
20260509060042 10 135 0.0 0.0 0.00 0.00 0.00 83 1010.5
20260509054546 10 136 0.0 0.0 0.00 0.00 0.00 82 1010.6
20260509053039 10 135 0.0 0.0 0.00 0.00 0.00 81 1010.8
20260509051537 11 135 0.0 0.0 0.00 0.00 0.00 82 1010.8
20260509050036 11 135 0.0 0.0 0.00 0.00 0.00 81 1010.9
20260509044534 11 135 0.0 0.0 0.00 0.00 0.00 81 1010.7
20260509043033 11 135 0.0 0.0 0.00 0.00 0.00 80 1010.8
20260509041529 11 136 0.0 0.0 0.00 0.00 0.00 78 1011.0
20260509040056 11 135 0.0 0.0 0.00 0.00 0.00 79 1011.1
20260509034556 11 135 0.0 0.0 0.00 0.00 0.00 78 1011.3
20260509033055 11 135 0.0 0.0 0.00 0.00 0.00 75 1011.1
20260509031607 12 135 0.0 0.0 0.00 0.00 0.00 73 1011.4
20260509030053 12 135 0.0 0.0 0.00 0.00 0.00 73 1011.4
20260509024553 13 135 0.0 0.0 0.00 0.00 0.00 71 1011.4
20260509023102 13 136 0.0 0.0 0.00 0.00 0.00 67 1011.2
20260509021550 14 135 0.0 0.0 0.00 0.00 0.00 66 1011.3
20260509020052 14 135 0.0 0.0 0.00 0.00 0.00 63 1011.4
20260509014548 14 135 0.0 0.0 0.00 0.00 0.00 62 1011.4
20260509013048 14 135 0.0 0.0 0.00 0.00 0.00 62 1011.7
20260509011548 13 135 0.0 0.0 0.00 0.00 0.00 63 1011.4
20260509010048 13 136 0.0 0.0 0.00 0.00 0.00 67 1011.0
20260509004545 13 136 0.0 0.0 0.00 0.00 0.00 67 1011.0
20260509003046 13 135 0.0 0.0 0.00 0.00 0.00 66 1011.0
20260509001542 13 135 0.0 0.0 0.00 0.00 0.00 63 1011.1
20260509000044 15 135 0.0 0.0 0.00 0.00 0.00 60 1010.9
20260508234543 15 135 0.0 0.0 0.00 0.00 0.00 57 1010.9
20260508233038 17 135 0.0 0.0 0.00 0.00 0.00 52 1010.6
20260508231538 17 135 0.0 0.0 0.00 0.00 0.00 52 1010.7
20260508230043 18 135 0.0 0.0 0.00 0.00 0.00 51 1010.8
20260508224537 18 135 0.0 0.0 0.00 0.00 0.00 53 1010.9
20260508223006 17 135 0.0 0.0 0.00 0.00 0.00 52 1010.8
20260508221503 17 135 0.0 0.0 0.00 0.00 0.00 53 1010.8
20260508220123 17 135 0.0 1.6 0.00 0.00 0.00 49 1011.0
20260508214600 17 135 0.0 6.4 0.00 0.00 0.00 49 1011.0
20260508213101 18 135 0.0 1.6 0.00 0.00 0.00 47 1010.9
20260508211558 18 136 0.0 0.0 0.00 0.00 0.00 49 1010.7
20260508210058 18 135 0.0 4.8 0.00 0.00 0.00 48 1010.9
20260508204604 18 135 0.0 0.0 0.00 0.00 0.00 49 1010.8
20260508203054 17 135 0.0 1.6 0.00 0.00 0.00 47 1011.0
20260508201553 18 135 0.0 0.0 0.00 0.00 0.00 44 1011.2
20260508200051 18 135 0.0 4.8 0.00 0.00 0.00 46 1011.1
20260508194549 20 135 0.0 1.6 0.00 0.00 0.00 44 1011.1
20260508193052 19 135 0.0 14.5 0.00 0.00 0.00 45 1011.2
20260508191547 18 135 0.0 12.9 0.00 0.00 0.00 45 1011.4
20260508190058 18 135 0.0 1.6 0.00 0.00 0.00 42 1011.5
20260508184549 18 135 0.0 0.0 0.00 0.00 0.00 45 1011.6
20260508183045 19 134 0.0 6.4 0.00 0.00 0.00 43 1011.6
20260508181602 21 134 0.0 4.8 0.00 0.00 0.00 41 1011.7
20260508180047 20 134 0.0 6.4 0.00 0.00 0.00 43 1011.9
20260508174521 20 134 0.0 9.7 0.00 0.00 0.00 44 1012.1